Find Starlink 31546

NORAD ID: 59470 Int'l Des: 2024-068 Owner: SPXS Country: US Constellation: starlink operational
LEOCIRCULAR

Current View

Loading 3D Globe...

About Starlink 31546

Starlink 31546 (NORAD 59470) is a starlink constellation satellite (v2 mini) launched Apr 10, 2024 by SPXS of US. It operates in LEO, CIRCULAR orbit with a mass of 730.00 kg.

Upcoming Passes

Passes for default location (London). Set your location on the main map for personalized predictions.

Altitude History

Loading altitude history...

Two-Line Element Set

1 59470U 24068R 26226.46148250 .00000708 00000-0 35235-4 0 9990
2 59470 43.0008 219.8937 0001290 273.3096 86.7608 15.27580091132697
Epoch: Aug 14, 2026 • Age: 8 hours

Current Status

Altitude 486.6 km
Apogee / Perigee N/A
Velocity 7.63 km/s
Sub-Earth Point 41.40°N, 36.07°E
Launch Date Apr 10, 2024
Age 2.3 years
Type internet

Technical Details

Classification Payload
Mass 730.00 kg
Dry Mass 700.00 kg
Total Mass 730.00 kg
Length 0.30 m
Diameter 4.10 m
Span 29.00 m
Shape Box + pan
Manufacturer SPXS
Bus Type Starlink V2M
Phase Status In Orbit
Owner/State SPXS/US

Most Searched